| time (UTC) | temp C | wind direction | speed KPH | gust KPH | rain 1hr cm | rain 24hr cm | rain mn cm | humidity % | barometer mb |
| 20260503211513 | 14 | 234 | 1.6 | 11.3 | 0.00 | 0.00 | 0.00 | 86 | 1004.0 |
| 20260503210012 | 14 | 286 | 0.0 | 4.8 | 0.00 | 0.00 | 0.00 | 86 | 1003.8 |
| 20260503204511 | 15 | 227 | 0.0 | 6.4 | 0.00 | 0.00 | 0.00 | 85 | 1003.9 |
| 20260503203030 | 15 | 259 | 1.6 | 6.4 | 0.00 | 0.00 | 0.00 | 84 | 1004.0 |
| 20260503201510 | 15 | 25 | 1.6 | 3.2 | 0.00 | 0.00 | 0.00 | 83 | 1004.1 |
| 20260503200012 | 15 | 77 | 1.6 | 6.4 | 0.00 | 0.00 | 0.00 | 83 | 1003.9 |
| 20260503194517 | 15 | 67 | 3.2 | 8.0 | 0.00 | 0.00 | 0.00 | 82 | 1003.9 |
| 20260503193009 | 15 | 69 | 1.6 | 9.7 | 0.00 | 0.00 | 0.00 | 82 | 1004.0 |
| 20260503191508 | 14 | 71 | 4.8 | 8.0 | 0.00 | 0.00 | 0.00 | 82 | 1004.1 |
| 20260503190007 | 14 | 91 | 1.6 | 12.9 | 0.00 | 0.00 | 0.00 | 82 | 1004.3 |
| 20260503184506 | 14 | 103 | 8.0 | 12.9 | 0.00 | 0.00 | 0.00 | 83 | 1004.1 |
| 20260503183005 | 14 | 97 | 8.0 | 14.5 | 0.00 | 0.00 | 0.00 | 84 | 1004.1 |
| 20260503181506 | 14 | 89 | 8.0 | 16.1 | 0.00 | 0.00 | 0.00 | 85 | 1003.9 |
| 20260503180005 | 15 | 102 | 8.0 | 17.7 | 0.00 | 0.00 | 0.00 | 85 | 1003.9 |
| 20260503174504 | 15 | 82 | 9.7 | 17.7 | 0.00 | 0.00 | 0.00 | 87 | 1003.8 |
| 20260503173003 | 15 | 81 | 6.4 | 14.5 | 0.00 | 0.00 | 0.00 | 87 | 1003.9 |
| 20260503171502 | 15 | 148 | 8.0 | 14.5 | 0.00 | 0.00 | 0.00 | 83 | 1004.7 |
| 20260503100109 | 18 | 222 | 3.2 | 9.7 | 0.00 | 0.00 | 0.00 | 71 | 1008.0 |
| 20260503081555 | 17 | 274 | 3.2 | 9.7 | 0.00 | 0.00 | 0.00 | 78 | 1008.5 |
| 20260503071543 | 16 | 307 | 0.0 | 6.4 | 0.00 | 0.00 | 0.00 | 81 | 1008.3 |
| 20260503054538 | 13 | 291 | 3.2 | 6.4 | 0.00 | 0.00 | 0.00 | 89 | 1008.3 |
| 20260503053127 | 13 | 291 | 4.8 | 6.4 | 0.00 | 0.00 | 0.00 | 89 | 1008.3 |
| 20260503051523 | 13 | 296 | 0.0 | 0.0 | 0.00 | 0.00 | 0.00 | 89 | 1008.1 |
| 20260503050020 | 13 | 296 | 0.0 | 1.6 | 0.00 | 0.00 | 0.00 | 89 | 1008.0 |
| 20260503044518 | 13 | 296 | 1.6 | 4.8 | 0.00 | 0.00 | 0.00 | 89 | 1008.0 |
| 20260503043024 | 13 | 296 | 0.0 | 6.4 | 0.00 | 0.00 | 0.00 | 89 | 1007.9 |
| 20260503041514 | 13 | 295 | 3.2 | 8.0 | 0.00 | 0.00 | 0.00 | 88 | 1008.1 |
| 20260503040018 | 13 | 272 | 0.0 | 1.6 | 0.00 | 0.00 | 0.00 | 87 | 1008.3 |
| 20260503034511 | 13 | 272 | 0.0 | 4.8 | 0.00 | 0.00 | 0.00 | 86 | 1008.4 |
| 20260503033010 | 13 | 179 | 1.6 | 3.2 | 0.00 | 0.00 | 0.00 | 85 | 1008.1 |
| 20260503031510 | 12 | 236 | 0.0 | 6.4 | 0.00 | 0.00 | 0.00 | 84 | 1008.3 |
| 20260503030008 | 12 | 297 | 3.2 | 6.4 | 0.00 | 0.00 | 0.00 | 82 | 1008.3 |
| 20260503024508 | 12 | 277 | 4.8 | 8.0 | 0.00 | 0.00 | 0.00 | 81 | 1008.4 |
| 20260503023002 | 12 | 213 | 1.6 | 9.7 | 0.00 | 0.00 | 0.00 | 81 | 1008.7 |
| 20260503021502 | 12 | 224 | 4.8 | 12.9 | 0.00 | 0.00 | 0.00 | 81 | 1009.1 |
| 20260503020201 | 11 | 183 | 3.2 | 6.4 | 0.00 | 0.00 | 0.00 | 81 | 1009.2 |
| 20260503014600 | 11 | 281 | 1.6 | 3.2 | 0.00 | 0.00 | 0.00 | 80 | 1008.9 |
| 20260503013056 | 11 | 281 | 0.0 | 0.0 | 0.00 | 0.00 | 0.00 | 83 | 1009.0 |
| 20260503011555 | 11 | 281 | 0.0 | 0.0 | 0.00 | 0.00 | 0.00 | 83 | 1009.0 |
| 20260503010052 | 11 | 281 | 0.0 | 0.0 | 0.00 | 0.00 | 0.00 | 81 | 1009.0 |
| 20260503004550 | 11 | 281 | 0.0 | 0.0 | 0.00 | 0.00 | 0.00 | 80 | 1009.0 |
| 20260503003050 | 12 | 281 | 0.0 | 0.0 | 0.00 | 0.00 | 0.00 | 81 | 1009.1 |
| 20260503001547 | 12 | 281 | 0.0 | 0.0 | 0.00 | 0.00 | 0.00 | 79 | 1009.2 |
| 20260503000046 | 12 | 281 | 0.0 | 0.0 | 0.00 | 0.00 | 0.00 | 79 | 1009.2 |
| 20260502234550 | 12 | 281 | 0.0 | 0.0 | 0.00 | 0.00 | 0.00 | 80 | 1009.2 |
| 20260502233040 | 12 | 281 | 0.0 | 0.0 | 0.00 | 0.00 | 0.00 | 77 | 1009.3 |
| 20260502231540 | 12 | 281 | 0.0 | 0.0 | 0.00 | 0.00 | 0.00 | 81 | 1009.6 |
| 20260502230035 | 13 | 281 | 0.0 | 1.6 | 0.00 | 0.00 | 0.00 | 81 | 1009.6 |
| 20260502224532 | 13 | 281 | 0.0 | 0.0 | 0.00 | 0.00 | 0.00 | 78 | 1009.6 |
| 20260502223030 | 13 | 281 | 0.0 | 0.0 | 0.00 | 0.00 | 0.00 | 76 | 1009.6 |
| 20260502221527 | 13 | 281 | 0.0 | 0.0 | 0.00 | 0.00 | 0.00 | 75 | 1009.6 |
| 20260502220023 | 13 | 281 | 0.0 | 3.2 | 0.00 | 0.00 | 0.00 | 78 | 1009.6 |
| 20260502214534 | 13 | 281 | 0.0 | 3.2 | 0.00 | 0.00 | 0.00 | 79 | 1009.7 |
| 20260502213022 | 13 | 281 | 1.6 | 11.3 | 0.00 | 0.00 | 0.00 | 80 | 1009.7 |